Terug naar catalogus

STARLINK-33899

ActiefCommunicatieVLEO
NORAD 63799·PAYLOAD·🇺🇸 United States

Gelanceerd May 2, 2025 vanaf Cape Canaveral Space Force Station

Loading…

Volgende Passages (komende 24 uur)

TLE

VersSource: CelesTrak SupGP

Epoch: Sep 14, 2026, 21:36 UTC

1 63799C 25091AA  26257.90048611  .00051127  00000+0  18520-2 0  2572
2 63799  43.0045  63.8961 0001666 273.8053 325.5171 15.27548894    10

Volg STARLINK-33899 in realtime met AllMySat

Download on the App Store